Погода в Нахе

Япония     26°12′54″N   127°41′30″E
темп.,
°C
ветер,
м/с
пор.,
м/с
влажн.,
%
обл.,
%
осадки,
мм/ч
давл.,
гПа
погр.,
м
26 февраля, пт
пт2600:00+20ю51092100 3.5 1011636
03:00+20ю2497100 20.4 1008268
06:00+20сз5896100 49.8 1009583
09:00+21юз71290100 86.3 1009713
12:00+22ююз7118949 1.1 1009730
15:00+23юз698651 1.4 1007610
18:00+22сз57900 0.1 1008385
21:00+20сз588822 0.1 1009533
27 февраля, сб
сб2700:00+20сз478824 0.0 1011471
03:00+20сз468814 0.0 1010435
06:00+20ссз478810 0.0 1011437
09:00+21ссв238550 0.0 1013488
12:00+21всв228196 0.3 1013481
15:00+21в228394 1.3 1012439
18:00+20ю018667 0.9 1012121
21:00+19зюз118650 0.9 1014167
28 февраля, вс
вс2800:00+19з228717 0.0 1014224
03:00+19з338610 0.0 1014293
06:00+19зюз348511 0.0 1014324
09:00+21з34785 0.0 1016600
12:00+22юз33700 0.0 1016798
15:00+23ююз33680 0.0 1014789
18:00+21ю23760 0.0 1015391
21:00+19ю23820 0.0 1016182
1 марта, пн
пн100:00+19ююв24833 0.0 1016204
03:00+20ю248019 0.1 1016272
06:00+19ююз258416 0.1 1015294
09:00+21юз457750 0.1 1017817
12:00+22юз567460 0.0 1016933
15:00+22юз577563 0.0 1015865
18:00+21зюз468020 0.0 1014740
21:00+20зюз468627 0.0 1016455
2 марта, вт
вт200:00+20зюз46875 0.0 1015419
03:00+20зюз58863 0.0 1015526
06:00+21зсз688438 0.0 1015710
09:00+21сз798163 0.1 1017909
12:00+20ссз8107969 0.1 1017872
15:00+19с9118173 0.1 1017834
18:00+17с91181100 0.1 1019991
21:00+16ссв7107899 0.2 1021944